Project,Study,Ord_Occ,Event_Num,Cast_ID,Date_Time_UTC,Date_Time_PST,Lat_Dec,Lon_Dec,Sta_ID,Line,Sta,Depth,Pressure,PrQ,Temp1,Temp1Q,Temp2,Temp2Q,TempAve,Salt1,Salt1Q,Salt1_Corr,Salt2,Salt2Q,Salt2_Corr,SaltAve_Corr,Ox1,Ox1Q,Ox1_CruiseCorr,Ox1_StaCorr,Ox2,Ox2Q,Ox2_CruiseCorr,Ox2_StaCorr,OxAve_StaCorr,Ox1uM,Ox1uM_CruiseCorr,Ox1uM_StaCorr,Ox2uM,Ox2uM_CruiseCorr,Ox2uM_StaCorr,OxAveuM_StaCorr,FluorV,FluorQ,EstChl_CruiseCorr,EstChl_StaCorr,ISUSV,ISUSQ,EstNO3_CruiseCorr,EstNO3_StaCorr,SigThetaTS1,SigThetaTS1Q,SigThetaTS2,SigThetaTS2Q,BAT,XMiss,TransQ,pH,pHQ,SPAR,SPARQ,PAR,PARQ,PoT1,PoT2,DynHt,SVA,OxSat1,OxSat2,BTL_Depth,BTL_Temp,SaltB,OxB,OxBuM,Chl-a,Phaeo,NO3,NO2,NH4,PO4,SIL
CalCOFI,2007SR,023,24,2007_023d,17-Jul-2020 23:21:02,17-Jul-2020 15:21:02,32.08548,-120.63818,090.0 070.0,090.0,070.0,1.000,1.007,,17.1806,,17.2521,,17.2164,33.6043,,33.6045,33.6004,,33.6020,33.6033,5.4794,,5.7077,5.6453,4.0535,,5.7357,4.3943,5.0198,238.879,248.8777,218.0121,176.721,418.7191,173.1326,195.5724,0.0600,,0.2807,0.2768,0.3080,,0.0000,0.030,24.4007,,24.3808,,0.7619,82.6567,,8.143,,9.3817E+02,,3.0127E+01,,17.1805,17.2519,-0.0011,,99.595,73.777,,,,,,,,,,,,
CalCOFI,2007SR,023,24,2007_023d,17-Jul-2020 23:21:11,17-Jul-2020 15:21:11,32.08548,-120.63818,090.0 070.0,090.0,070.0,2.000,2.014,,17.4269,,17.4416,,17.4343,33.6122,,33.6124,33.6144,,33.6160,33.6142,5.4640,,5.6916,5.6293,4.0500,,5.7274,4.3866,5.0080,238.222,248.1918,217.4496,176.572,417.1122,172.8499,195.1498,0.0562,,0.2361,0.2396,0.3351,,0.0000,0.766,24.3480,,24.3462,,0.7520,82.8617,,8.141,,9.4236E+02,,2.4469E+01,,17.4265,17.4412,0.0036,,99.790,73.987,2,17.565,33.6155,5.676,247.81,0.292,0.057,0.08,0.00,0.17,0.25,0.86
CalCOFI,2007SR,023,24,2007_023d,17-Jul-2020 23:21:13,17-Jul-2020 15:21:13,32.08548,-120.63818,090.0 070.0,090.0,070.0,3.000,3.021,,17.6223,,17.6057,,17.6140,33.6108,,33.6110,33.6109,,33.6125,33.6118,5.4375,,5.6639,5.6018,4.0442,,5.7135,4.3740,4.9879,237.076,246.9955,216.4684,176.330,414.3092,172.3909,194.4297,0.0571,,0.2466,0.2484,0.3368,,0.0000,0.812,24.3001,,24.3042,,0.7545,82.8085,,8.141,,9.4178E+02,,2.0640E+01,,17.6218,17.6051,0.0073,,99.677,74.113,,,,,,,,,,,,
CalCOFI,2007SR,023,24,2007_023d,17-Jul-2020 23:21:16,17-Jul-2020 15:21:16,32.08548,-120.63818,090.0 070.0,090.0,070.0,4.000,4.028,,17.5248,,17.5248,,17.5248,33.6090,,33.6092,33.6090,,33.6106,33.6099,5.4439,,5.6706,5.6085,4.0531,,5.7348,4.3934,5.0010,237.353,247.2847,216.7055,176.713,414.9867,173.1174,194.9115,0.0572,,0.2478,0.2494,0.3337,,0.0000,0.728,24.3222,,24.3222,,0.7568,82.7620,,8.142,,9.3779E+02,,1.7513E+01,,17.5241,17.5241,0.0110,,99.608,74.160,,,,,,,,,,,,
CalCOFI,2007SR,023,24,2007_023d,17-Jul-2020 23:21:18,17-Jul-2020 15:21:18,32.08548,-120.63818,090.0 070.0,090.0,070.0,5.000,5.035,,17.5579,,17.5940,,17.5760,33.6105,,33.6107,33.6123,,33.6139,33.6123,5.4307,,5.6568,5.5948,4.0534,,5.7355,4.3940,4.9944,236.779,246.6855,216.2141,176.731,413.5828,173.1515,194.6828,0.0573,,0.2490,0.2504,0.3330,,0.0000,0.709,24.3154,,24.3082,,0.7547,82.8059,,8.142,,9.3807E+02,,1.5149E+01,,17.5570,17.5931,0.0146,,99.431,74.266,,,,,,,,,,,,
CalCOFI,2007SR,023,24,2007_023d,17-Jul-2020 23:21:20,17-Jul-2020 15:21:20,32.08548,-120.63818,090.0 070.0,090.0,070.0,6.000,6.042,,17.5338,,17.5422,,17.5380,33.6076,,33.6078,33.6065,,33.6081,33.6080,5.4382,,5.6647,5.6026,4.0611,,5.7539,4.4108,5.0067,237.104,247.0248,216.4923,177.064,414.3777,173.7831,195.1377,0.0564,,0.2384,0.2416,0.3313,,0.0000,0.663,24.3191,,24.3162,,0.7565,82.7680,,8.142,,9.4205E+02,,1.3187E+01,,17.5328,17.5412,0.0182,,99.520,74.331,,,,,,,,,,,,
CalCOFI,2007SR,023,24,2007_023d,17-Jul-2020 23:21:22,17-Jul-2020 15:21:22,32.08548,-120.63818,090.0 070.0,090.0,070.0,7.000,7.049,,17.4475,,17.4591,,17.4533,33.6086,,33.6088,33.6097,,33.6113,33.6101,5.4333,,5.6596,5.5975,4.0737,,5.7839,4.4383,5.0179,236.886,246.7972,216.3057,177.609,413.8445,174.8169,195.5613,0.0602,,0.2831,0.2787,0.3295,,0.0000,0.614,24.3406,,24.3386,,0.7599,82.6978,,8.143,,9.4428E+02,,1.1820E+01,,17.4463,17.4580,0.0218,,99.267,74.444,,,,,,,,,,,,
CalCOFI,2007SR,023,24,2007_023d,17-Jul-2020 23:21:24,17-Jul-2020 15:21:24,32.08548,-120.63818,090.0 070.0,090.0,070.0,8.000,8.056,,17.3914,,17.3860,,17.3887,33.6056,,33.6058,33.6045,,33.6061,33.6060,5.4462,,5.6730,5.6109,4.0819,,5.8035,4.4562,5.0336,237.447,247.3828,216.7860,177.965,415.2167,175.4921,196.1391,0.0628,,0.3136,0.3038,0.3283,,0.0000,0.581,24.3517,,24.3522,,0.7598,82.7005,,8.143,,9.4311E+02,,1.0510E+01,,17.3901,17.3847,0.0254,,99.395,74.488,,,,,,,,,,,,
CalCOFI,2007SR,023,24,2007_023d,17-Jul-2020 23:21:27,17-Jul-2020 15:21:27,32.08548,-120.63818,090.0 070.0,090.0,070.0,9.000,9.063,,17.2830,,17.3058,,17.2944,33.6043,,33.6045,33.6058,,33.6074,33.6060,5.4806,,5.7090,5.6466,4.0944,,5.8334,4.4834,5.0650,238.941,248.9424,218.0652,178.505,418.8708,176.5164,197.2908,0.0673,,0.3665,0.3468,0.3276,,0.0000,0.562,24.3766,,24.3723,,0.7639,82.6161,,8.147,,9.3677E+02,,9.4077E+00,,17.2816,17.3043,0.0290,,99.814,74.601,,,,,,,,,,,,
CalCOFI,2007SR,023,24,2007_023d,17-Jul-2020 23:21:29,17-Jul-2020 15:21:29,32.08548,-120.63818,090.0 070.0,090.0,070.0,10.000,10.070,,17.1743,,17.1627,,17.1685,33.6064,,33.6066,33.6065,,33.6081,33.6074,5.5025,,5.7319,5.6693,4.1067,,5.8627,4.5102,5.0898,239.888,249.9310,218.8760,179.037,421.1870,177.5255,198.2008,0.0710,,0.4100,0.3816,0.3278,,0.0000,0.568,24.4041,,24.4069,,0.7749,82.3884,,8.149,,9.3664E+02,,8.4813E+00,,17.1727,17.1610,0.0326,,100.005,74.621,,,,,,,,,,,,
CalCOFI,2007SR,023,24,2007_023d,17-Jul-2020 23:21:30,17-Jul-2020 15:21:30,32.08548,-120.63818,090.0 070.0,090.0,070.0,11.000,11.078,,17.1287,,17.1268,,17.1278,33.6081,,33.6083,33.6087,,33.6103,33.6093,5.5132,,5.7430,5.6804,4.1118,,5.8749,4.5213,5.1009,240.351,250.4143,219.2724,179.258,422.3194,177.9447,198.6086,0.0724,,0.4265,0.3946,0.3284,,0.0000,0.584,24.4162,,24.4171,,0.7816,82.2514,,8.152,,9.4288E+02,,7.7656E+00,,17.1269,17.1250,0.0361,,100.112,74.663,,,,,,,,,,,,
CalCOFI,2007SR,023,24,2007_023d,17-Jul-2020 23:21:32,17-Jul-2020 15:21:32,32.08548,-120.63818,090.0 070.0,090.0,070.0,12.000,12.085,,17.0821,,17.0805,,17.0813,33.6164,,33.6166,33.6176,,33.6192,33.6179,5.5257,,5.7561,5.6934,4.1201,,5.8947,4.5394,5.1164,240.892,250.9791,219.7356,179.613,423.6426,178.6180,199.1768,0.0829,,0.5500,0.4903,0.3286,,0.0000,0.590,24.4336,,24.4349,,0.7917,82.0433,,8.153,,9.4606E+02,,7.0937E+00,,17.0801,17.0786,0.0396,,100.254,74.750,12,17.026,33.6233,5.771,251.96,0.645,0.088,0.0,0.00,0.17,0.23,0.80
CalCOFI,2007SR,023,24,2007_023d,17-Jul-2020 23:21:34,17-Jul-2020 15:21:34,32.08548,-120.63818,090.0 070.0,090.0,070.0,13.000,13.092,,17.0714,,17.0715,,17.0715,33.6195,,33.6197,33.6203,,33.6219,33.6208,5.5301,,5.7607,5.6979,4.1239,,5.9038,4.5477,5.1228,241.083,251.1784,219.8991,179.780,424.1098,178.9348,199.4170,0.0841,,0.5642,0.5010,0.3291,,0.0000,0.603,24.4386,,24.4392,,0.7931,82.0149,,8.153,,9.4355E+02,,6.4259E+00,,17.0692,17.0694,0.0431,,100.315,74.808,,,,,,,,,,,,
CalCOFI,2007SR,023,24,2007_023d,17-Jul-2020 23:21:36,17-Jul-2020 15:21:36,32.08548,-120.63818,090.0 070.0,090.0,070.0,14.000,14.099,,17.0672,,17.0670,,17.0671,33.6205,,33.6207,33.6215,,33.6231,33.6219,5.5297,,5.7603,5.6975,4.1279,,5.9133,4.5564,5.1270,241.063,251.1576,219.8820,179.955,424.0609,179.2667,199.5744,0.0877,,0.6065,0.5328,0.3303,,0.0000,0.636,24.4404,,24.4412,,0.7926,82.0252,,8.153,,9.3911E+02,,5.6341E+00,,17.0649,17.0647,0.0467,,100.300,74.875,,,,,,,,,,,,
CalCOFI,2007SR,023,24,2007_023d,17-Jul-2020 23:21:39,17-Jul-2020 15:21:39,32.08548,-120.63818,090.0 070.0,090.0,070.0,15.000,15.106,,17.0588,,17.0585,,17.0587,33.6219,,33.6221,33.6229,,33.6245,33.6233,5.5637,,5.7958,5.7328,4.1351,,5.9305,4.5721,5.1525,242.545,252.7046,221.1509,180.267,427.6856,179.8585,200.5047,0.0948,,0.6901,0.5942,0.3314,,0.0000,0.666,24.4434,,24.4443,,0.7967,81.9401,,8.155,,9.3887E+02,,5.1197E+00,,17.0564,17.0561,0.0502,,100.901,74.993,,,,,,,,,,,,
CalCOFI,2007SR,023,24,2007_023d,17-Jul-2020 23:21:41,17-Jul-2020 15:21:41,32.08548,-120.63818,090.0 070.0,090.0,070.0,16.000,16.113,,16.9959,,16.9890,,16.9925,33.6277,,33.6279,33.6280,,33.6296,33.6288,5.6398,,5.8753,5.8117,4.1481,,5.9616,4.6005,5.2061,245.861,256.1662,223.9900,180.830,435.7961,180.9264,202.4582,0.0994,,0.7443,0.6331,0.3318,,0.0000,0.676,24.4628,,24.4647,,0.8174,81.5188,,8.158,,9.4294E+02,,4.7838E+00,,16.9932,16.9863,0.0537,,102.162,75.130,,,,,,,,,,,,
CalCOFI,2007SR,023,24,2007_023d,17-Jul-2020 23:21:42,17-Jul-2020 15:21:42,32.08548,-120.63818,090.0 070.0,090.0,070.0,17.000,17.120,,16.8868,,16.8792,,16.8830,33.6319,,33.6321,33.6319,,33.6335,33.6328,5.6797,,5.9170,5.8532,4.1573,,5.9835,4.6205,5.2369,247.593,257.9742,225.4729,181.226,440.0323,181.6775,203.5752,0.1072,,0.8362,0.6973,0.3312,,0.0000,0.660,24.4916,,24.4934,,0.8405,81.0486,,8.164,,9.4321E+02,,4.4258E+00,,16.8841,16.8765,0.0571,,102.671,75.139,,,,,,,,,,,,
CalCOFI,2007SR,023,24,2007_023d,17-Jul-2020 23:21:44,17-Jul-2020 15:21:44,32.08548,-120.63818,090.0 070.0,090.0,070.0,18.000,18.127,,16.8158,,16.8106,,16.8132,33.6281,,33.6283,33.6286,,33.6302,33.6293,5.6892,,5.9269,5.8630,4.1666,,6.0057,4.6408,5.2519,248.003,258.4022,225.8239,181.627,441.0351,182.4381,204.1310,0.1152,,0.9304,0.7611,0.3310,,0.0000,0.655,24.5054,,24.5070,,0.8578,80.6996,,8.170,,9.4025E+02,,3.9507E+00,,16.8129,16.8077,0.0606,,102.699,75.206,,,,,,,,,,,,
CalCOFI,2007SR,023,24,2007_023d,17-Jul-2020 23:21:46,17-Jul-2020 15:21:46,32.08548,-120.63817,090.0 070.0,090.0,070.0,19.000,19.134,,16.7770,,16.8160,,16.7965,33.6287,,33.6289,33.6313,,33.6329,33.6309,5.6850,,5.9226,5.8587,4.1754,,6.0267,4.6600,5.2594,247.815,258.2060,225.6630,182.012,440.5753,183.1684,204.4157,0.1291,,1.0943,0.8667,0.3311,,0.0000,0.657,24.5149,,24.5078,,0.8632,80.5888,,8.174,,9.4244E+02,,3.4418E+00,,16.7740,16.8129,0.0640,,102.546,75.374,,,,,,,,,,,,
CalCOFI,2007SR,023,24,2007_023d,17-Jul-2020 23:21:49,17-Jul-2020 15:21:49,32.08548,-120.63818,090.0 070.0,090.0,070.0,20.000,20.141,,16.7705,,16.7698,,16.7702,33.6304,,33.6306,33.6315,,33.6331,33.6319,5.6912,,5.9290,5.8651,4.1883,,6.0575,4.6881,5.2766,248.086,258.4889,225.8950,182.574,441.2381,184.2343,205.0647,0.1219,,1.0094,0.8128,0.3308,,0.0000,0.649,24.5178,,24.5188,,0.8705,80.4431,,8.177,,9.4401E+02,,3.0906E+00,,16.7672,16.7666,0.0675,,102.646,75.540,,,,,,,,,,,,
CalCOFI,2007SR,023,24,2007_023d,17-Jul-2020 23:21:51,17-Jul-2020 15:21:51,32.08548,-120.63818,090.0 070.0,090.0,070.0,21.000,21.149,,16.7437,,16.7440,,16.7439,33.6289,,33.6291,33.6301,,33.6317,33.6304,5.7115,,5.9502,5.8861,4.1999,,6.0852,4.7134,5.2998,248.969,259.4106,226.6510,183.077,443.3978,185.1884,205.9197,0.1279,,1.0802,0.8579,0.3303,,0.0000,0.636,24.5229,,24.5238,,0.8765,80.3226,,8.177,,9.3806E+02,,2.8019E+00,,16.7403,16.7406,0.0709,,102.958,75.710,,,,,,,,,,,,
CalCOFI,2007SR,023,24,2007_023d,17-Jul-2020 23:21:52,17-Jul-2020 15:21:52,32.08548,-120.63818,090.0 070.0,090.0,070.0,22.000,22.156,,16.6968,,16.6932,,16.6950,33.6247,,33.6249,33.6249,,33.6265,33.6257,5.7342,,5.9740,5.9097,4.2076,,6.1036,4.7302,5.3200,249.956,260.4410,227.4961,183.411,445.8119,185.8219,206.6590,0.1352,,1.1663,0.9110,0.3293,,0.0000,0.609,24.5307,,24.5317,,0.8857,80.1377,,8.179,,9.3689E+02,,2.5162E+00,,16.6932,16.6896,0.0744,,103.270,75.772,22,16.530,33.6249,5.953,259.88,1.261,0.223,0.0,0.00,0.24,0.19,0.76
CalCOFI,2007SR,023,24,2007_023d,17-Jul-2020 23:21:54,17-Jul-2020 15:21:54,32.08548,-120.63818,090.0 070.0,090.0,070.0,23.000,23.163,,16.6217,,16.6165,,16.6191,33.6153,,33.6155,33.6151,,33.6167,33.6161,5.7417,,5.9818,5.9175,4.2199,,6.1330,4.7570,5.3373,250.282,260.7813,227.7752,183.948,446.6092,186.8405,207.3079,0.1552,,1.4024,1.0472,0.3282,,0.0000,0.579,24.5409,,24.5420,,0.9014,79.8246,,8.182,,9.4054E+02,,2.2158E+00,,16.6180,16.6128,0.0778,,103.249,75.877,,,,,,,,,,,,
CalCOFI,2007SR,023,24,2007_023d,17-Jul-2020 23:21:56,17-Jul-2020 15:21:56,32.08548,-120.63818,090.0 070.0,090.0,070.0,24.000,24.170,,16.5780,,16.5984,,16.5882,33.6142,,33.6144,33.6160,,33.6176,33.6160,5.7302,,5.9698,5.9056,4.2278,,6.1518,4.7742,5.3399,249.779,260.2562,227.3445,184.288,445.3790,187.4854,207.4150,0.1870,,1.7783,1.2358,0.3281,,0.0000,0.576,24.5503,,24.5470,,0.9127,79.5992,,8.182,,9.4503E+02,,1.9224E+00,,16.5741,16.5945,0.0812,,102.955,75.991,,,,,,,,,,,,
CalCOFI,2007SR,023,24,2007_023d,17-Jul-2020 23:21:59,17-Jul-2020 15:21:59,32.08548,-120.63818,090.0 070.0,090.0,070.0,25.000,25.177,,16.5609,,16.5603,,16.5606,33.6108,,33.6110,33.6148,,33.6164,33.6137,5.7106,,5.9493,5.8852,4.2400,,6.1810,4.8008,5.3430,248.922,259.3616,226.6108,184.819,443.2829,188.4926,207.5517,0.1910,,1.8257,1.2571,0.3286,,0.0000,0.590,24.5516,,24.5549,,0.9200,79.4540,,8.182,,9.4128E+02,,1.6790E+00,,16.5568,16.5562,0.0846,,102.566,76.154,,,,,,,,,,,,
CalCOFI,2007SR,023,24,2007_023d,17-Jul-2020 23:22:01,17-Jul-2020 15:22:01,32.08548,-120.63818,090.0 070.0,090.0,070.0,26.000,26.184,,16.5436,,16.5435,,16.5436,33.6147,,33.6149,33.6163,,33.6179,33.6164,5.6787,,5.9160,5.8521,4.2461,,6.1955,4.8141,5.3331,247.530,257.9085,225.4190,185.086,439.8782,188.9990,207.2090,0.1961,,1.8860,1.2835,0.3284,,0.0000,0.584,24.5587,,24.5600,,0.9279,79.2962,,8.181,,9.4264E+02,,1.4823E+00,,16.5394,16.5394,0.0880,,101.961,76.240,,,,,,,,,,,,
CalCOFI,2007SR,023,24,2007_023d,17-Jul-2020 23:22:02,17-Jul-2020 15:22:02,32.08548,-120.63818,090.0 070.0,090.0,070.0,27.000,27.191,,16.5450,,16.5442,,16.5446,33.6161,,33.6163,33.6176,,33.6192,33.6178,5.6636,,5.9002,5.8364,4.2498,,6.2043,4.8222,5.3293,246.875,257.2247,224.8582,185.247,438.2762,189.3044,207.0813,0.2093,,2.0423,1.3476,0.3276,,0.0000,0.562,24.5595,,24.5608,,0.9270,79.3148,,8.180,,9.4380E+02,,1.2983E+00,,16.5407,16.5399,0.0914,,101.695,76.308,,,,,,,,,,,,
CalCOFI,2007SR,023,24,2007_023d,17-Jul-2020 23:22:04,17-Jul-2020 15:22:04,32.08548,-120.63818,090.0 070.0,090.0,070.0,28.000,28.199,,16.5490,,16.5489,,16.5490,33.6211,,33.6213,33.6228,,33.6244,33.6229,5.6547,,5.8909,5.8272,4.2516,,6.2086,4.8261,5.3267,246.485,256.8176,224.5242,185.325,437.3223,189.4523,206.9883,0.2454,,2.4703,1.4925,0.3273,,0.0000,0.554,24.5625,,24.5638,,0.9281,79.2933,,8.178,,9.4185E+02,,1.1335E+00,,16.5445,16.5443,0.0948,,101.546,76.350,,,,,,,,,,,,
CalCOFI,2007SR,023,24,2007_023d,17-Jul-2020 23:22:07,17-Jul-2020 15:22:07,32.08548,-120.63817,090.0 070.0,090.0,070.0,29.000,29.206,,16.5502,,16.5509,,16.5506,33.6258,,33.6260,33.6233,,33.6249,33.6255,5.6430,,5.8787,5.8151,4.2538,,6.2139,4.8309,5.3230,245.975,256.2852,224.0876,185.421,436.0749,189.6344,206.8610,0.3120,,3.2619,1.6435,0.3289,,0.0000,0.598,24.5658,,24.5637,,0.9280,79.2940,,8.178,,9.4019E+02,,9.5755E-01,,16.5455,16.5462,0.0982,,101.341,76.393,,,,,,,,,,,,
CalCOFI,2007SR,023,24,2007_023d,17-Jul-2020 23:22:09,17-Jul-2020 15:22:09,32.08548,-120.63818,090.0 070.0,090.0,070.0,30.000,30.213,,16.5142,,16.5066,,16.5104,33.6198,,33.6200,33.6196,,33.6212,33.6206,5.5831,,5.8161,5.7529,4.2610,,6.2311,4.8466,5.2998,243.363,253.5585,221.8512,185.734,429.6863,190.2281,206.0397,0.2835,,2.9228,1.5974,0.3301,,0.0000,0.630,24.5696,,24.5712,,0.9242,79.3702,,8.176,,9.4774E+02,,8.1856E-01,,16.5094,16.5018,0.1016,,100.192,76.454,,,,,,,,,,,,
CalCOFI,2007SR,023,24,2007_023d,17-Jul-2020 23:22:11,17-Jul-2020 15:22:11,32.08548,-120.63817,090.0 070.0,090.0,070.0,31.000,31.220,,16.4519,,16.4456,,16.4488,33.6209,,33.6211,33.6229,,33.6245,33.6228,5.5731,,5.8056,5.7425,4.2699,,6.2523,4.8660,5.3043,242.921,253.0971,221.4728,186.116,428.6053,190.9527,206.2128,0.2739,,2.8087,1.5756,0.3307,,0.0000,0.647,24.5848,,24.5878,,0.9051,79.7507,,8.174,,9.4735E+02,,7.1511E-01,,16.4469,16.4406,0.1050,,99.890,76.524,,,,,,,,,,,,
CalCOFI,2007SR,023,24,2007_023d,17-Jul-2020 23:22:12,17-Jul-2020 15:22:12,32.08548,-120.63816,090.0 070.0,090.0,070.0,32.000,32.227,,16.4369,,16.4364,,16.4367,33.6232,,33.6234,33.6247,,33.6263,33.6249,5.5665,,5.7987,5.7357,4.2675,,6.2466,4.8608,5.2983,242.632,252.7954,221.2254,186.014,427.8984,190.7592,205.9923,0.2724,,2.7909,1.5720,0.3314,,0.0000,0.666,24.5901,,24.5914,,0.8964,79.9234,,8.170,,9.4404E+02,,6.1550E-01,,16.4318,16.4313,0.1083,,99.745,76.469,32,14.959,,,255.21,2.266,0.357,0.16,0.00,0.64,0.26,1.10
CalCOFI,2007SR,023,24,2007_023d,17-Jul-2020 23:22:14,17-Jul-2020 15:22:14,32.08548,-120.63816,090.0 070.0,090.0,070.0,33.000,33.234,,16.4361,,16.4375,,16.4368,33.6246,,33.6248,33.6262,,33.6278,33.6263,5.5422,,5.7733,5.7105,4.2657,,6.2423,4.8569,5.2837,241.574,251.6910,220.3195,185.932,425.3107,190.6037,205.4616,0.2870,,2.9644,1.6046,0.3322,,0.0000,0.687,24.5914,,24.5923,,0.8902,80.0472,,8.169,,9.4122E+02,,5.2121E-01,,16.4308,16.4322,0.1117,,99.309,76.438,,,,,,,,,,,,
CalCOFI,2007SR,023,24,2007_023d,17-Jul-2020 23:22:17,17-Jul-2020 15:22:17,32.08548,-120.63816,090.0 070.0,090.0,070.0,34.000,34.242,,16.4227,,16.4205,,16.4216,33.6229,,33.6231,33.6231,,33.6247,33.6239,5.4882,,5.7169,5.6544,4.2684,,6.2488,4.8627,5.2586,239.221,249.2347,218.3049,186.051,419.5556,190.8294,204.5672,0.2904,,3.0049,1.6111,0.3344,,0.0000,0.747,24.5932,,24.5939,,0.8694,80.4655,,8.165,,9.4296E+02,,4.3083E-01,,16.4173,16.4150,0.1151,,98.315,76.460,,,,,,,,,,,,
CalCOFI,2007SR,023,24,2007_023d,17-Jul-2020 23:22:19,17-Jul-2020 15:22:19,32.08548,-120.63816,090.0 070.0,090.0,070.0,35.000,35.249,,16.3914,,16.3859,,16.3887,33.6153,,33.6155,33.6152,,33.6168,33.6162,5.3024,,5.5228,5.4616,4.2904,,6.3013,4.9107,5.1862,231.120,240.7781,211.3689,187.010,399.7417,192.6484,202.0087,0.2920,,3.0239,1.6141,0.3367,,0.0000,0.810,24.5946,,24.5958,,0.8770,80.3130,,8.163,,9.4455E+02,,3.5811E-01,,16.3858,16.3803,0.1184,,94.924,76.799,,,,,,,,,,,,
CalCOFI,2007SR,023,24,2007_023d,17-Jul-2020 23:22:21,17-Jul-2020 15:22:21,32.08548,-120.63816,090.0 070.0,090.0,070.0,36.000,36.256,,16.2117,,16.1755,,16.1936,33.5738,,33.5740,33.5661,,33.5677,33.5709,5.3876,,5.6118,5.5501,4.3286,,6.3925,4.9940,5.2721,234.832,244.6530,214.5471,188.673,408.8207,195.8027,205.1749,0.3346,,3.5312,1.6605,0.3376,,0.0000,0.834,24.6038,,24.6061,,0.8742,80.3680,,8.156,,9.4452E+02,,3.1029E-01,,16.2060,16.1698,0.1218,,96.086,77.142,,,,,,,,,,,,
CalCOFI,2007SR,023,24,2007_023d,17-Jul-2020 23:22:22,17-Jul-2020 15:22:22,32.08548,-120.63816,090.0 070.0,090.0,070.0,37.000,37.263,,15.4389,,15.3854,,15.4122,33.4313,,33.4315,33.4170,,33.4186,33.4251,5.5235,,5.7538,5.6911,4.3931,,6.5464,5.1346,5.4129,240.740,250.8204,219.6054,191.471,423.2709,201.1099,210.3577,0.2588,,2.6293,1.5351,0.3379,,0.0000,0.842,24.6672,,24.6681,,0.8083,81.7046,,8.152,,9.4452E+02,,2.5887E-01,,15.4332,15.3798,0.1252,,96.935,77.010,37,13.696,33.1725,,266.13,0.692,0.099,1.00,0.025,1.54,0.43,1.68
CalCOFI,2007SR,023,24,2007_023d,17-Jul-2020 23:22:24,17-Jul-2020 15:22:24,32.08548,-120.63816,090.0 070.0,090.0,070.0,38.000,38.270,,14.8212,,14.8009,,14.8111,33.3362,,33.3364,33.3288,,33.3304,33.3334,5.6486,,5.8845,5.8209,4.4500,,6.6823,5.2586,5.5398,246.180,256.4992,224.2631,193.940,436.5763,205.7930,215.0281,0.2475,,2.4952,1.4996,0.3385,,0.0000,0.858,24.7291,,24.7278,,0.7773,82.3403,,8.148,,9.4452E+02,,2.2207E-01,,14.8156,14.7953,0.1284,,97.866,77.065,,,,,,,,,,,,
CalCOFI,2007SR,023,24,2007_023d,17-Jul-2020 23:22:27,17-Jul-2020 15:22:27,32.08548,-120.63816,090.0 070.0,090.0,070.0,39.000,39.278,,14.2983,,14.3454,,14.3219,33.2234,,33.2236,33.2329,,33.2345,33.2291,5.7808,,6.0227,5.9581,4.4921,,6.7828,5.3504,5.6543,251.936,262.5079,229.1913,195.770,450.6547,209.2641,219.2277,0.1444,,1.2749,0.9753,0.3417,,0.0000,0.945,24.7532,,24.7506,,0.7370,83.1743,,8.142,,9.4570E+02,,1.8535E-01,,14.2926,14.3397,0.1316,,99.041,77.039,,,,,,,,,,,,
CalCOFI,2007SR,023,24,2007_023d,17-Jul-2020 23:22:29,17-Jul-2020 15:22:29,32.08548,-120.63818,090.0 070.0,090.0,070.0,40.000,40.285,,13.9441,,13.9482,,13.9462,33.1713,,33.1715,33.1731,,33.1747,33.1731,5.8468,,6.0916,6.0265,4.5246,,6.8604,5.4213,5.7239,254.802,265.4997,231.6452,197.182,457.6645,211.9423,221.7938,0.1304,,1.1097,0.8762,0.3480,,0.0000,1.117,24.7869,,24.7875,,0.7036,83.8702,,8.136,,9.4377E+02,,1.6727E-01,,13.9385,13.9426,0.1348,,99.425,76.949,,,,,,,,,,,,
CalCOFI,2007SR,023,24,2007_023d,17-Jul-2020 23:22:31,17-Jul-2020 15:22:31,32.08548,-120.63817,090.0 070.0,090.0,070.0,41.000,41.292,,13.8348,,13.8159,,13.8254,33.1557,,33.1559,33.1548,,33.1564,33.1562,5.8627,,6.1082,6.0430,4.5361,,6.8878,5.4463,5.7447,255.493,266.2210,232.2368,197.678,459.3546,212.8831,222.5600,0.1108,,0.8786,0.7263,0.3551,,0.0000,1.309,24.7974,,24.8005,,0.6973,84.0030,,8.132,,9.4259E+02,,1.4773E-01,,13.8290,13.8101,0.1380,,99.465,76.927,,,,,,,,,,,,
CalCOFI,2007SR,023,24,2007_023d,17-Jul-2020 23:22:33,17-Jul-2020 15:22:33,32.08548,-120.63816,090.0 070.0,090.0,070.0,42.000,42.299,,13.7853,,13.7755,,13.7804,33.1509,,33.1511,33.1524,,33.1540,33.1526,5.8733,,6.1193,6.0540,4.5388,,6.8943,5.4522,5.7531,255.952,266.7002,232.6298,197.795,460.4773,213.1050,222.8674,0.1188,,0.9729,0.7891,0.3626,,0.0000,1.513,24.8038,,24.8070,,0.6905,84.1443,,8.129,,9.4502E+02,,1.2923E-01,,13.7794,13.7696,0.1412,,99.541,76.909,42,13.625,,, ,,,,,,,
CalCOFI,2007SR,023,24,2007_023d,17-Jul-2020 23:22:34,17-Jul-2020 15:22:34,32.08548,-120.63816,090.0 070.0,090.0,070.0,43.000,43.307,,13.6894,,13.6802,,13.6848,33.1683,,33.1685,33.1680,,33.1696,33.1691,5.8015,,6.0443,5.9795,4.5433,,6.9050,5.4620,5.7208,252.816,263.4265,229.9448,197.984,452.8070,213.4635,221.7042,0.0893,,0.6254,0.5468,0.3738,,0.2567,1.817,24.8369,,24.8386,,0.6850,84.2622,,8.120,,9.4785E+02,,1.2998E-01,,13.6834,13.6742,0.1444,,98.143,76.843,,,,,,,,,,,,
CalCOFI,2007SR,023,24,2007_023d,17-Jul-2020 23:22:37,17-Jul-2020 15:22:37,32.08548,-120.63817,090.0 070.0,090.0,070.0,44.000,44.314,,13.7898,,13.7729,,13.7814,33.2831,,33.2833,33.2624,,33.2640,33.2737,5.5988,,5.8325,5.7692,4.5347,,6.8845,5.4433,5.6063,243.966,254.1880,222.3675,197.601,431.1612,212.7371,217.5523,0.1036,,0.7938,0.6679,0.3924,,0.7790,2.323,24.9051,,24.8926,,0.6769,84.4312,,8.108,,9.4509E+02,,1.2986E-01,,13.7836,13.7667,0.1475,,94.975,76.888,,,,,,,,,,,,
CalCOFI,2007SR,023,24,2007_023d,17-Jul-2020 23:22:39,17-Jul-2020 15:22:39,32.08548,-120.63818,090.0 070.0,090.0,070.0,45.000,45.321,,13.8257,,13.8190,,13.8224,33.3469,,33.3471,33.3481,,33.3497,33.3484,5.5783,,5.8111,5.7479,4.5315,,6.8768,5.4363,5.5921,243.063,253.2454,221.5944,197.451,428.9526,212.4525,217.0235,0.1023,,0.7784,0.6572,0.4079,,1.2143,2.744,24.9471,,24.9494,,0.6819,84.3270,,8.101,,9.4362E+02,,8.6806E-02,,13.8193,13.8127,0.1505,,94.734,76.947,,,,,,,,,,,,
CalCOFI,2007SR,023,24,2007_023d,17-Jul-2020 23:22:41,17-Jul-2020 15:22:41,32.08548,-120.63816,090.0 070.0,090.0,070.0,46.000,46.328,,13.7320,,13.7255,,13.7288,33.3411,,33.3413,33.3427,,33.3443,33.3428,5.5757,,5.8083,5.7452,4.5344,,6.8838,5.4426,5.5939,242.946,253.1232,221.4942,197.572,428.6664,212.6821,217.0882,0.1149,,0.9269,0.7587,0.4198,,1.5484,3.067,24.9618,,24.9644,,0.6882,84.1929,,8.097,,9.4642E+02,,5.1848E-02,,13.7255,13.7191,0.1535,,94.506,76.847,,,,,,,,,,,,
CalCOFI,2007SR,023,24,2007_023d,17-Jul-2020 23:22:43,17-Jul-2020 15:22:43,32.08548,-120.63816,090.0 070.0,090.0,070.0,47.000,47.336,,13.6607,,13.6522,,13.6565,33.3375,,33.3377,33.3392,,33.3408,33.3393,5.5890,,5.8222,5.7590,4.5389,,6.8945,5.4524,5.6057,243.524,253.7266,221.9891,197.768,430.0801,213.0538,217.5215,0.1003,,0.7549,0.6406,0.4312,,1.8685,3.377,24.9737,,24.9768,,0.6886,84.1855,,8.094,,9.4827E+02,,1.5685E-02,,13.6541,13.6456,0.1565,,94.592,76.807,,,,,,,,,,,,
CalCOFI,2007SR,023,24,2007_023d,17-Jul-2020 23:22:45,17-Jul-2020 15:22:45,32.08548,-120.63817,090.0 070.0,090.0,070.0,48.000,48.343,,13.5771,,13.5778,,13.5775,33.3363,,33.3365,33.3350,,33.3366,33.3366,5.5557,,5.7875,5.7245,4.5443,,6.9074,5.4642,5.5944,242.070,252.2088,220.7442,197.999,426.5239,213.4920,217.1181,0.1090,,0.8574,0.7119,0.4477,,2.3318,3.825,24.9898,,24.9887,,0.6836,84.2904,,8.090,,9.4627E+02,,4.3196E-04,,13.5704,13.5711,0.1596,,93.868,76.779,,,,,,,,,,,,